Wind_Speed
20 20 21 21 22 23 23 23 24 22 22 23 23 22 21 22 23 23 23 23 24 25 26 26 26 28 29 30 31 32 33 33 34 36 38 39 39 39 40 41 42 42 42 42
21 21 22 22 22 23 24 24 24 23 22 23 23 23 23 23 23 23 23 23 23 24 25 26 26 27 28 29 30 31 32 32 33 34 35 37 37 37 38 39 40 41 41 40
21 21 22 21 21 22 22 23 23 22 22 22 23 23 23 24 24 24 24 24 24 23 24 25 26 27 26 27 28 29 30 31 32 33 33 34 35 36 36 37 37 38 37 37
20 21 22 21 22 22 22 21 22 22 22 22 22 23 23 23 24 24 25 24 23 23 24 24 25 26 26 26 26 27 28 29 30 31 32 33 33 33 35 35 35 35 35 37
20 20 20 20 21 22 22 21 21 21 21 22 22 22 22 22 22 23 23 23 23 24 25 25 25 25 26 25 25 25 26 27 28 30 31 32 32 32 33 33 33 34 35 36
20 21 21 21 21 21 21 21 21 21 21 21 22 21 20 20 20 20 21 21 21 22 23 25 25 25 26 26 25 26 26 27 28 28 29 31 31 31 32 33 33 33 34 34
20 21 20 21 21 21 21 21 21 21 21 21 21 21 21 20 20 20 20 21 21 21 22 23 24 25 25 25 25 25 26 25 25 26 27 28 29 29 31 32 32 32 33 33
21 21 21 21 21 21 21 21 21 21 21 21 21 21 20 19 19 19 19 20 20 20 21 22 23 24 25 25 24 24 25 25 25 26 26 27 28 28 29 30 31 32 32 32
22 22 22 22 22 21 21 22 22 21 21 21 20 19 19 19 18 18 18 18 18 19 20 21 22 22 23 24 24 24 24 24 25 26 27 27 27 28 28 29 30 30 31 31
22 22 22 22 22 22 22 22 21 21 21 20 19 19 18 18 18 17 17 17 17 18 18 19 19 20 20 21 23 23 24 24 24 25 26 26 27 28 28 29 29 30 30 30
22 22 23 22 22 22 22 21 20 20 20 19 19 18 18 17 17 17 16 16 17 17 18 19 19 19 20 21 21 22 23 24 24 24 25 26 26 26 26 27 28 29 29 29
21 22 22 22 22 22 21 21 20 19 19 19 19 18 18 17 17 16 16 16 16 17 17 18 18 18 19 20 20 21 22 23 23 23 24 24 24 25 25 25 26 27 28 28
21 21 21 21 21 21 21 21 20 19 18 18 18 17 17 17 17 16 16 16 16 17 17 17 17 18 18 19 20 21 21 22 23 23 24 24 24 24 24 25 25 25 26 27
21 21 20 20 20 21 21 20 20 19 19 18 17 17 16 16 16 16 16 16 16 17 17 17 17 18 18 19 19 20 21 21 22 23 24 24 24 24 24 25 25 25 26 26
21 21 20 20 20 20 20 20 19 19 19 18 18 17 16 15 15 15 15 16 16 16 16 16 17 17 18 19 19 20 20 21 22 23 24 24 24 24 24 24 25 25 25 25
21 20 20 20 19 19 19 19 19 19 18 18 17 17 16 16 16 16 16 16 16 16 16 16 17 17 17 18 19 19 20 20 21 21 22 23 23 23 23 24 23 23 23 24
21 20 20 19 19 18 18 18 19 18 18 17 16 16 16 16 16 16 16 16 16 16 17 17 17 17 17 18 18 19 19 19 20 20 20 21 21 21 22 22 22 22 23 23
20 20 20 19 18 18 18 18 18 18 17 16 15 15 16 16 17 17 17 17 17 17 18 18 18 17 17 17 18 18 18 18 18 18 19 19 20 20 21 21 22 22 22 23
20 19 19 19 18 18 18 18 18 17 16 15 15 15 16 16 17 17 17 17 17 18 18 18 18 17 17 17 17 17 17 16 16 17 17 18 18 18 19 19 19 20 20 21
19 19 19 19 18 18 18 18 18 17 16 16 16 16 16 17 17 17 17 17 18 18 18 18 17 17 17 17 17 16 16 16 15 15 16 17 18 18 18 19 19 19 19 20
19 19 19 19 18 18 18 18 17 17 17 16 16 16 17 17 18 18 18 18 19 19 18 17 17 17 17 17 17 17 16 16 16 16 16 17 17 17 17 18 18 18 18 20
19 19 19 19 18 18 18 17 17 17 17 17 16 16 17 18 18 18 18 18 18 18 18 17 17 17 17 17 17 17 17 16 16 16 16 17 17 17 17 17 17 17 18 18
19 18 18 18 18 18 18 18 17 17 17 17 17 17 17 18 18 18 18 18 18 18 18 17 18 18 18 17 17 17 17 17 17 17 17 17 17 17 17 17 18 18 18 18
19 18 18 18 17 18 18 18 18 17 17 17 17 17 18 18 18 18 17 17 18 17 17 17 17 17 17 17 17 16 16 16 16 16 16 17 17 17 17 17 17 17 18 18
19 18 17 17 17 17 17 17 17 17 17 17 17 17 17 18 18 18 17 17 17 17 17 16 16 16 15 15 15 15 15 15 15 16 16 16 16 17 17 17 17 17 17 18
19 18 18 17 17 17 17 16 16 16 16 16 17 17 17 17 17 17 16 16 16 16 15 14 14 14 13 13 13 13 14 14 14 15 15 15 16 17 17 17 17 17 17 17
18 18 18 18 17 17 16 16 16 16 16 16 16 16 16 16 16 16 15 15 15 14 14 14 14 13 13 13 13 13 13 13 14 14 14 15 16 16 17 17 17 17 17 17
Wind_Direction
287 287 290 292 292 290 289 289 291 290 288 284 283 283 281 279 275 271 270 266 259 257 260 262 262 262 263 262 261 258 253 250 249 248 246 246 246 247 248 248 247 246 246 247
287 287 289 291 292 292 290 288 289 290 288 289 287 284 282 281 277 273 272 268 261 257 260 260 261 263 264 262 261 259 253 249 248 248 248 248 248 248 249 249 248 247 246 245
289 290 291 292 295 295 294 289 286 287 288 288 288 287 285 282 279 276 274 270 265 262 260 259 260 263 265 261 261 258 254 251 249 249 249 248 248 250 248 248 247 246 244 244
294 294 294 297 295 295 296 294 288 287 287 288 289 289 287 284 280 277 275 273 269 265 262 261 260 262 262 260 258 257 254 252 250 247 246 247 248 247 246 245 244 244 247 245
298 297 299 301 298 297 298 298 294 291 290 290 289 290 287 282 280 278 275 273 270 267 265 264 262 260 259 259 258 255 253 252 250 248 247 246 246 246 245 244 244 246 247 247
299 299 302 303 300 298 298 297 296 294 293 292 290 288 287 284 281 278 275 273 272 271 266 264 264 262 261 260 260 258 256 254 252 250 247 246 246 247 246 245 245 245 245 247
296 299 303 304 302 300 299 301 300 298 295 291 289 289 290 288 284 279 275 273 272 272 269 268 268 267 265 264 262 258 256 255 254 251 248 246 246 246 246 246 246 245 245 248
295 299 302 303 302 300 300 300 300 298 297 294 292 290 289 289 288 284 278 275 274 273 271 269 269 269 267 264 262 258 254 254 253 248 246 246 247 248 248 247 246 244 244 246
295 297 299 300 299 299 299 299 298 296 295 296 295 293 291 289 289 286 282 279 278 275 271 271 269 271 270 264 260 258 254 253 252 248 248 249 248 249 249 247 246 244 245 246
293 295 296 296 296 297 298 298 297 295 293 294 294 293 290 286 285 286 285 282 281 279 274 272 271 270 268 265 258 256 254 253 253 250 249 249 249 249 249 247 246 245 245 245
293 294 293 293 295 296 297 298 297 295 293 292 291 291 289 285 283 284 286 283 283 281 275 273 272 269 267 264 259 255 254 252 251 251 249 248 247 248 248 248 248 246 245 245
295 294 294 294 294 295 297 298 296 294 292 291 290 290 289 286 283 283 285 284 283 284 281 277 273 272 269 264 260 256 252 250 250 249 248 247 248 249 249 248 247 246 244 244
296 296 296 296 295 294 296 296 294 293 293 292 291 290 289 287 284 282 284 285 286 286 284 281 276 273 270 266 262 258 254 250 251 250 249 248 249 250 250 249 248 246 244 244
297 298 297 296 295 295 296 296 293 292 292 293 292 291 289 287 284 282 284 287 288 287 285 283 279 274 271 268 265 260 256 254 254 251 250 250 251 250 250 248 247 247 247 245
295 297 298 297 296 297 297 296 294 293 292 292 292 290 288 287 286 284 286 288 290 289 287 285 281 275 272 269 267 263 260 258 257 255 252 251 250 250 248 245 245 246 246 243
294 297 298 298 297 298 297 296 295 292 291 290 291 289 286 284 285 284 284 288 290 288 288 288 283 277 272 270 268 266 263 261 260 257 254 252 250 249 246 244 245 245 244 241
291 293 295 298 298 296 294 295 295 294 291 289 289 289 286 285 284 284 283 286 288 288 288 288 285 281 276 272 271 267 264 262 259 256 253 251 248 246 244 243 244 245 243 240
289 289 292 295 297 296 294 294 294 294 292 290 288 288 286 286 286 286 285 285 286 287 289 288 285 282 278 276 272 267 263 260 257 253 251 248 246 246 246 244 244 244 243 240
289 287 289 293 295 295 295 295 293 292 292 290 288 287 287 287 289 289 286 285 286 289 290 289 285 281 280 278 274 271 267 261 256 252 249 245 244 244 243 241 242 243 240 235
290 286 287 291 293 294 295 293 290 289 289 288 286 286 287 288 290 291 289 287 287 289 291 289 284 281 279 277 275 271 266 260 256 254 250 246 245 244 243 242 242 241 236 232
290 289 288 290 291 293 294 292 289 287 287 288 286 286 286 287 289 291 289 287 287 288 290 288 283 282 280 276 273 270 264 259 256 255 253 248 245 242 241 240 238 235 233 231
291 290 289 288 288 290 292 291 288 287 286 287 287 287 286 287 289 291 290 288 287 288 288 285 282 281 279 277 273 269 263 258 255 255 254 250 246 244 242 238 236 235 233 232
292 290 289 288 287 287 289 289 288 287 286 286 287 287 287 287 289 290 289 289 290 290 289 286 284 282 278 276 273 268 263 258 255 255 255 251 248 245 241 238 236 236 234 233
292 291 289 287 287 288 288 288 287 287 286 286 286 287 287 285 287 289 289 289 291 291 289 287 285 282 279 276 272 268 263 258 256 255 254 250 246 242 238 235 234 234 232 230
291 290 289 287 287 288 288 288 287 287 288 286 286 287 287 286 287 290 289 289 290 290 289 288 287 283 279 275 272 268 263 259 256 255 252 248 244 239 236 233 232 231 230 228
291 289 289 289 288 288 287 287 287 286 286 284 284 285 286 288 290 292 290 290 291 288 287 287 286 282 278 274 271 268 262 259 258 255 252 247 241 237 234 232 230 229 228 228
290 290 290 292 291 288 285 285 287 287 285 283 281 283 285 287 290 292 291 291 290 287 286 286 286 282 277 273 270 267 264 261 258 254 250 244 237 232 230 229 229 227 225 223
Height
5604 5602 5600 5598 5596 5593 5590 5588 5586 5585 5583 5582 5579 5577 5575 5574 5573 5572 5572 5571 5571 5571 5571 5571 5572 5572 5572 5572 5572 5573 5574 5577 5579 5582 5585 5588 5591 5594 5597 5600 5604 5607 5610 5614
5598 5596 5593 5592 5590 5587 5584 5582 5580 5578 5577 5575 5572 5571 5569 5568 5566 5565 5565 5564 5564 5564 5564 5565 5565 5565 5565 5564 5565 5565 5567 5569 5571 5574 5576 5579 5582 5585 5588 5591 5594 5598 5601 5605
5592 5590 5587 5586 5585 5581 5579 5576 5574 5572 5572 5568 5567 5565 5563 5561 5560 5559 5558 5558 5558 5558 5558 5558 5558 5558 5558 5557 5557 5558 5559 5561 5564 5566 5568 5571 5573 5576 5579 5582 5585 5589 5592 5596
5585 5584 5581 5583 5577 5575 5572 5570 5568 5566 5564 5562 5560 5558 5556 5554 5553 5552 5551 5551 5551 5551 5551 5551 5551 5551 5551 5551 5551 5552 5553 5555 5557 5559 5561 5563 5565 5568 5571 5574 5577 5580 5583 5586
5579 5576 5575 5575 5571 5568 5566 5565 5562 5560 5558 5556 5553 5552 5550 5548 5546 5545 5545 5544 5544 5544 5544 5544 5544 5544 5545 5545 5545 5545 5547 5548 5550 5552 5554 5555 5558 5560 5563 5565 5568 5571 5575 5578
5574 5571 5569 5569 5565 5561 5560 5558 5556 5553 5551 5549 5547 5547 5546 5543 5540 5539 5538 5537 5537 5536 5536 5536 5536 5537 5537 5537 5538 5539 5540 5541 5543 5544 5546 5548 5550 5552 5555 5557 5560 5563 5566 5569
5568 5565 5564 5562 5559 5556 5555 5553 5549 5547 5545 5543 5541 5540 5539 5536 5534 5533 5532 5531 5530 5529 5529 5529 5529 5529 5530 5530 5530 5531 5533 5534 5535 5537 5539 5541 5543 5545 5547 5550 5553 5555 5558 5561
5562 5560 5561 5556 5552 5551 5549 5545 5543 5540 5538 5536 5535 5533 5531 5530 5528 5527 5525 5524 5523 5523 5522 5522 5522 5522 5522 5522 5523 5524 5525 5527 5528 5530 5532 5534 5536 5538 5540 5542 5545 5547 5550 5553
5557 5557 5553 5549 5546 5544 5542 5540 5537 5535 5533 5531 5529 5527 5525 5524 5522 5521 5520 5518 5517 5516 5516 5515 5515 5515 5515 5515 5516 5517 5518 5520 5521 5523 5524 5526 5528 5530 5532 5534 5537 5539 5542 5545
5550 5549 5546 5543 5540 5538 5536 5534 5531 5529 5527 5525 5523 5521 5520 5518 5517 5516 5514 5513 5512 5510 5510 5509 5509 5509 5508 5509 5509 5510 5512 5513 5514 5515 5517 5519 5521 5522 5524 5527 5529 5531 5534 5537
5543 5541 5539 5537 5534 5532 5530 5527 5525 5523 5521 5519 5517 5516 5514 5513 5511 5510 5509 5507 5506 5505 5504 5503 5503 5503 5502 5502 5503 5504 5505 5506 5507 5508 5510 5511 5513 5515 5517 5519 5521 5524 5526 5529
5537 5535 5532 5531 5528 5526 5524 5521 5519 5517 5516 5514 5512 5510 5508 5507 5506 5505 5504 5502 5501 5500 5499 5498 5497 5497 5496 5496 5497 5497 5498 5499 5500 5502 5503 5504 5506 5508 5509 5512 5514 5515 5518 5520
5530 5528 5525 5524 5522 5520 5518 5515 5513 5511 5510 5508 5506 5505 5503 5502 5500 5499 5498 5497 5496 5495 5493 5492 5491 5491 5491 5490 5491 5491 5492 5493 5494 5495 5496 5498 5499 5501 5502 5504 5506 5508 5510 5512
5523 5521 5519 5517 5515 5513 5511 5509 5507 5506 5504 5502 5501 5499 5498 5497 5495 5494 5493 5492 5490 5489 5488 5487 5486 5485 5485 5485 5485 5485 5486 5486 5487 5488 5489 5491 5492 5494 5495 5497 5499 5500 5502 5505
5517 5515 5513 5511 5509 5507 5505 5503 5501 5500 5498 5497 5495 5494 5492 5491 5490 5489 5488 5487 5485 5484 5483 5482 5481 5480 5479 5479 5479 5479 5479 5480 5480 5481 5482 5483 5485 5486 5488 5490 5491 5493 5495 5497
5511 5509 5507 5505 5503 5501 5499 5497 5496 5494 5492 5491 5489 5488 5487 5486 5485 5484 5482 5481 5480 5479 5478 5476 5475 5474 5474 5473 5473 5473 5473 5473 5474 5474 5475 5476 5477 5479 5481 5482 5484 5486 5488 5490
5504 5503 5501 5499 5497 5495 5493 5492 5490 5488 5487 5485 5484 5483 5481 5480 5479 5478 5477 5476 5475 5473 5472 5471 5470 5468 5468 5467 5467 5466 5466 5467 5467 5467 5468 5469 5471 5472 5474 5476 5477 5479 5481 5483
5497 5496 5495 5493 5491 5489 5488 5486 5484 5483 5481 5480 5479 5477 5476 5475 5474 5473 5472 5470 5469 5468 5466 5465 5464 5463 5462 5461 5461 5460 5460 5460 5461 5461 5462 5463 5465 5466 5467 5469 5470 5472 5474 5476
5491 5490 5488 5487 5485 5484 5482 5480 5479 5477 5476 5475 5474 5472 5471 5470 5469 5467 5466 5465 5464 5462 5461 5459 5458 5457 5456 5455 5455 5454 5454 5454 5455 5455 5456 5457 5459 5460 5461 5463 5464 5466 5467 5470
5485 5484 5482 5481 5479 5478 5476 5475 5473 5471 5470 5469 5468 5467 5466 5465 5463 5462 5461 5459 5458 5457 5455 5454 5452 5451 5450 5450 5449 5449 5449 5449 5450 5450 5451 5452 5453 5454 5456 5457 5459 5460 5462 5464
5478 5477 5476 5475 5473 5472 5470 5469 5467 5466 5465 5464 5463 5462 5460 5459 5458 5457 5455 5454 5452 5451 5450 5448 5447 5446 5445 5444 5444 5444 5444 5444 5445 5445 5446 5447 5448 5449 5450 5452 5453 5455 5457 5460
5472 5470 5469 5468 5467 5466 5464 5463 5462 5461 5459 5458 5457 5456 5455 5454 5452 5451 5449 5448 5447 5445 5444 5442 5441 5440 5439 5438 5438 5438 5438 5439 5439 5440 5441 5442 5443 5444 5445 5447 5449 5450 5453 5455
5465 5464 5463 5462 5461 5459 5458 5457 5456 5455 5454 5453 5452 5451 5449 5448 5447 5446 5444 5443 5441 5440 5438 5437 5436 5434 5433 5433 5432 5432 5433 5433 5434 5435 5435 5436 5437 5439 5440 5442 5444 5446 5448 5450
5459 5457 5456 5455 5454 5453 5452 5451 5450 5449 5448 5447 5446 5445 5444 5443 5441 5440 5438 5437 5436 5434 5433 5431 5430 5429 5428 5427 5427 5427 5427 5428 5428 5429 5430 5431 5432 5433 5435 5437 5439 5441 5444 5446
5452 5451 5450 5449 5448 5447 5446 5445 5444 5443 5442 5441 5440 5439 5438 5437 5436 5434 5433 5432 5430 5429 5427 5426 5425 5424 5423 5422 5422 5422 5422 5422 5423 5423 5424 5425 5427 5428 5430 5432 5434 5437 5439 5442
5446 5445 5444 5443 5442 5441 5440 5440 5439 5438 5436 5436 5435 5434 5433 5431 5430 5429 5427 5426 5425 5424 5422 5421 5420 5419 5418 5418 5417 5417 5417 5417 5418 5418 5419 5420 5421 5423 5425 5428 5430 5432 5434 5437
5440 5439 5438 5437 5436 5435 5434 5434 5433 5432 5431 5430 5429 5428 5427 5426 5425 5423 5422 5421 5420 5419 5418 5417 5416 5415 5414 5413 5413 5412 5412 5412 5412 5413 5414 5415 5416 5418 5420 5423 5425 5427 5430 5432